Flag for U.S.A. Weather past 2 weeks in Akron, Ohio, U.S.A.

Now
24 °F

Overcast.


Feels Like: 12 °F
Forecast: 19 / 27 °F
Wind: 14 mph from North

Location: Akron Fulton International Airport

Current Time: Jan 26, 2015 at 4:15:39 PM

Latest Report: Jan 26, 2015 at 3:54 PM


Visibility: 6 mi

Pressure: 29.83 "Hg

Humidity: 77%

Dew point: 18 °F

Location of AkronLocation

Historic Weather in Akron — Graph

°F

Akron temperature yesterday

Maximum temperature yesterday: 35 °F (at 3:54 AM)
Minimum temperature yesterday: 21 °F (at 10:54 PM)
Average temperature yesterday: 29 °F

Past Weeks' High & Low Weather Summary

 TemperatureHumidityPressure
High45 °F (Jan 17, 4:54 PM)92% (Jan 12, 4:54 AM)30.68 "Hg (Jan 12, 4:54 AM)
Low9 °F (Jan 13, 7:54 AM)40% (Jan 11, 3:54 PM)29.59 "Hg (Jan 24, 2:54 PM)
Average30 °F76%30.04 "Hg
* Reported Jan 11 2:54 PM — Jan 26 2:54 PM, Akron, Weather by CustomWeather, © 2014

Note: Actual official high and low records may vary slightly from our data, if they occured in-between our weather recording intervals... More about our weather records

Advertising

Akron weather history for previous 24 hours

 ConditionsComfort  
Time TempWeatherWind HumidityBarometerVisibility
2:54 PM
Jan 26
26 °FOvercast.14 mph74%29.81 "Hg10 mi
1:54 PM28 °FPartly sunny.10 mph69%29.79 "Hg10 mi
12:54 PM25 °FOvercast.7 mph72%29.80 "Hg10 mi
11:54 AM24 °FScattered clouds.9 mph75%29.82 "Hg8 mi
10:54 AM22 °FLight snow. Mostly cloudy.10 mph78%29.84 "Hg4 mi
9:54 AM21 °FLight snow. Mostly cloudy.9 mph78%29.82 "Hg3 mi
8:54 AM20 °FLight snow. Ice fog.8 mph85%29.81 "Hg1 mi
7:59 AM20 °FLight snow. Overcast.10 mph82%29.77 "Hg2 mi
6:54 AM20 °FLight snow. Overcast.9 mph82%29.80 "Hg2 mi
5:58 AM20 °FLight snow. Overcast.8 mph82%29.75 "Hg2 mi
5:02 AM20 °FLight snow. Overcast.8 mph82%29.75 "Hg4 mi
3:54 AM20 °FLight snow. Overcast.9 mph82%29.80 "Hg1 mi
2:54 AM20 °FLight snow. Overcast.8 mph82%29.82 "Hg2 mi
1:54 AM20 °FLight snow. Ice fog.10 mph85%29.82 "Hg1 mi
12:54 AM20 °FLight snow. Ice fog.9 mph85%29.83 "Hg1 mi
11:54 PM
Jan 25
21 °FLight snow. Overcast.9 mph81%29.85 "Hg2 mi
11:04 PM21 °FLight snow. Overcast.10 mph81%29.82 "Hg2 mi
10:54 PM21 °FLight snow. Mostly cloudy.13 mph81%29.86 "Hg2 mi
9:54 PM22 °FLight snow. Mostly cloudy.8 mph82%29.86 "Hg3 mi
8:54 PM23 °FLight snow. Mostly cloudy.13 mph81%29.86 "Hg2 mi
7:54 PM24 °FLight snow. Overcast.9 mph81%29.86 "Hg2 mi
6:54 PM24 °FLight snow. Ice fog.8 mph84%29.85 "Hg1 mi
6:04 PM25 °FLight snow. Ice fog.12 mph85%29.81 "Hg1 mi
5:54 PM25 °FLight snow. Ice fog.13 mph85%29.83 "Hg1 mi
5:02 PM27 °FLight snow. Mostly cloudy.12 mph78%29.79 "Hg2 mi
Weather by CustomWeather, © 2014

See weather overviewHow to use our weather pages